Salisbury, MD

9:24 AM EST on February 09, 2016 (GMT -0500)
Salisbury-Ocean City Wicomico Regional

Weather History for KSBY - May, 2013

Change the Weather History Date:

Sunday, May 5, 2013

  Actual Average Record
Temperature  
Mean Temperature 55 °F 59 °F  
Max Temperature 63 °F 71 °F 90 °F (1930)
Min Temperature 46 °F 48 °F 28 °F (2003)
Degree Days  
Heating Degree Days 10 7  
Month to date heating degree days 48 35  
Since 1 July heating degree days 3796 4315  
Cooling Degree Days 0 1  
Month to date cooling degree days 0 5  
Year to date cooling degree days 46 22  
Growing Degree Days 2 (Base 50)    
Moisture  
Dew Point 43 °F    
Average Humidity 69    
Maximum Humidity 83    
Minimum Humidity 55    
Precipitation  
Precipitation 0.00 in 0.11 in 1.15 in (1914)
Month to date precipitation 0.00 0.51  
Year to date precipitation 15.33 15.44  
Snow  
Snow 0.00 in 0.00 in 0.00 in (2002)
Month to date snowfall 0.0 0.0  
Since 1 July snowfall 2.8 9.3  
Snow Depth 0.00 in    
Sea Level Pressure  
Sea Level Pressure 30.20 in    
Wind  
Wind Speed 10 mph (NE)    
Max Wind Speed 18 mph    
Max Gust Speed 25 mph    
Visibility 10 miles    
Events      
T = Trace of Precipitation, MM = Missing Value Source: NWS Daily Summary

Daily Weather History Graph

Daily Weather History Graph

Search for Another Location

Airport or City:

Trip Planner

Search our weather history database for the weather conditions in past years. The results will help you decide how hot, cold, wet, or windy it might be!

Date:

Astronomy

May. 05, 2013 Rise Set
Actual Time 6:00 AM EDT 7:57 PM EDT
Civil Twilight 5:31 AM EDT 8:26 PM EDT
Nautical Twilight 4:56 AM EDT 9:01 PM EDT
Astronomical Twilight 4:18 AM EDT 9:39 PM EDT
Moon 3:26 AM EDT (5/5) 3:57 PM EDT (5/5)
Length of Visible Light 14h 54m
Length of Day
13h 57m
Waning Crescent, 18% of the Moon is Illuminated
May 5
Waning Crescent
May 9
New
May 18
First Quarter
May 25
Full
May 31
Last Quarter

Hourly Weather History & Observations

Time (EDT) Temp. Windchill Dew Point Humidity Pressure Visibility Wind Dir Wind Speed Gust Speed Precip Events Conditions
12:09 AM 44.6 °F 42.2 °F 39.2 °F 81% 30.22 in 10.0 mi NE 4.6 mph - N/A   Mostly Cloudy
12:54 AM 46.0 °F 42.5 °F 41.0 °F 83% 30.22 in 10.0 mi NE 6.9 mph - N/A   Overcast
1:54 AM 46.0 °F 42.5 °F 39.9 °F 79% 30.20 in 10.0 mi NNE 6.9 mph - N/A   Mostly Cloudy
2:54 AM 46.9 °F - 39.9 °F 77% 30.19 in 10.0 mi NNE 6.9 mph - N/A   Partly Cloudy
3:24 AM 46.4 °F 42.4 °F 39.2 °F 76% 30.18 in 10.0 mi NNE 8.1 mph - N/A   Mostly Cloudy
3:54 AM 46.9 °F - 39.9 °F 77% 30.18 in 10.0 mi NNE 8.1 mph - N/A   Overcast
4:54 AM 46.9 °F - 41.0 °F 80% 30.18 in 10.0 mi NNE 5.8 mph - N/A   Overcast
5:54 AM 46.9 °F - 41.0 °F 80% 30.18 in 10.0 mi NNE 8.1 mph - N/A   Overcast
6:54 AM 48.0 °F - 41.0 °F 77% 30.20 in 10.0 mi NNE 8.1 mph - N/A   Mostly Cloudy
7:07 AM 48.2 °F - 42.8 °F 82% 30.19 in 10.0 mi NNE 6.9 mph - N/A   Scattered Clouds
7:37 AM 51.8 °F - 42.8 °F 71% 30.20 in 10.0 mi NE 10.4 mph - N/A   Mostly Cloudy
7:54 AM 52.0 °F - 42.1 °F 69% 30.22 in 10.0 mi NE 12.7 mph 20.7 mph N/A   Overcast
8:54 AM 52.0 °F - 41.0 °F 66% 30.22 in 10.0 mi NE 16.1 mph 24.2 mph N/A   Overcast
9:47 AM 53.6 °F - 41.0 °F 62% 30.22 in 10.0 mi NE 16.1 mph - N/A   Overcast
9:54 AM 53.1 °F - 41.0 °F 64% 30.23 in 10.0 mi NE 13.8 mph - N/A   Overcast
10:54 AM 57.0 °F - 42.1 °F 57% 30.23 in 10.0 mi ENE 13.8 mph - N/A   Overcast
11:54 AM 57.9 °F - 43.0 °F 58% 30.22 in 10.0 mi ENE 11.5 mph - N/A   Overcast
12:16 PM 59.0 °F - 44.6 °F 59% 30.21 in 10.0 mi NNE 13.8 mph - N/A   Overcast
12:52 PM 60.8 °F - 44.6 °F 55% 30.21 in 10.0 mi NNE 15.0 mph 20.7 mph N/A   Overcast
12:54 PM 60.1 °F - 44.1 °F 55% 30.21 in 10.0 mi NNE 12.7 mph 20.7 mph N/A   Overcast
1:11 PM 60.8 °F - 44.6 °F 55% 30.21 in 10.0 mi East 12.7 mph 20.7 mph N/A   Mostly Cloudy
2:54 PM 60.1 °F - 45.0 °F 57% 30.21 in 10.0 mi ENE 15.0 mph - N/A   Overcast
3:54 PM 60.1 °F - 45.0 °F 57% 30.21 in 10.0 mi East 10.4 mph 20.7 mph N/A   Overcast
4:54 PM 59.0 °F - 45.0 °F 60% 30.19 in 10.0 mi ENE 11.5 mph - N/A   Overcast
5:54 PM 57.0 °F - 45.0 °F 64% 30.19 in 10.0 mi ENE 12.7 mph - N/A   Overcast
6:54 PM 55.9 °F - 45.0 °F 67% 30.19 in 10.0 mi NE 9.2 mph - N/A   Overcast
8:54 PM 52.0 °F - 44.1 °F 74% 30.20 in 10.0 mi NE 10.4 mph - N/A   Overcast
9:54 PM 52.0 °F - 45.0 °F 77% 30.20 in 10.0 mi ENE 9.2 mph - N/A   Overcast
10:16 PM 51.8 °F - 44.6 °F 76% 30.19 in 10.0 mi ENE 9.2 mph - N/A   Overcast
10:54 PM 53.1 °F - 45.0 °F 74% 30.19 in 10.0 mi ENE 8.1 mph - N/A   Overcast
11:54 PM 52.0 °F - 46.0 °F 80% 30.18 in 10.0 mi NE 8.1 mph - N/A   Overcast